• In Deutschland
  • Länderverzeichnis
  • Für 7 Tage
  • Wassertemperatur
  • Satellitenkarten
  • Wetterkarte
  • Widgets
  • user-avatar
    Anmelden

    Stündliche Wetter Kitzbühel

    Heute, 27 Mai, Samstag

    Zeit Temperatur Niederschläge Wind Luftdruck Luftfeuchtigkeit
    00:00 +9°C° 0 mm 1 m/S 679 mmHg 95%
    01:00 +9°C° 0 mm 1 m/S 678 mmHg 93%
    02:00 +8°C° 0 mm 1 m/S 678 mmHg 92%
    03:00 +8°C° 0 mm 1 m/S 678 mmHg 90%
    04:00 +7°C° 0 mm 1 m/S 678 mmHg 88%
    05:00 +10°C° 0 mm 1 m/S 679 mmHg 83%
    06:00 +12°C° 0 mm 1 m/S 680 mmHg 78%
    07:00 +15°C° 0 mm 1 m/S 681 mmHg 72%
    08:00 +18°C° 0 mm 1 m/S 681 mmHg 66%
    09:00 +19°C° 0 mm 1 m/S 681 mmHg 59%
    10:00 +21°C° 0 mm 1 m/S 681 mmHg 52%
    11:00 +21°C° 0 mm 2 m/S 681 mmHg 51%
    12:00 +21°C° 0 mm 2 m/S 682 mmHg 50%
    13:00 +23°C° 0 mm 2 m/S 682 mmHg 49%
    14:00 +23°C° 0 mm 2 m/S 681 mmHg 52%
    15:00 +23°C° 0 mm 2 m/S 681 mmHg 54%
    16:00 +23°C° 0 mm 2 m/S 681 mmHg 57%
    17:00 +20°C° 0 mm 2 m/S 681 mmHg 67%
    18:00 +19°C° 0 mm 1 m/S 681 mmHg 77%
    19:00 +18°C° 0 mm 1 m/S 680 mmHg 87%
    20:00 +14°C° 0 mm 1 m/S 680 mmHg 90%
    21:00 +12°C° 0 mm 1 m/S 680 mmHg 92%
    22:00 +10°C° 0 mm 1 m/S 680 mmHg 95%
    23:00 +10°C° 0 mm 1 m/S 680 mmHg 94%

    Morgen, 28 Mai, Sonntag

    Zeit Temperatur Niederschläge Wind Luftdruck Luftfeuchtigkeit
    00:00 +11°C° 0 mm 1 m/S 680 mmHg 93%
    01:00 +10°C° 0 mm 2 m/S 681 mmHg 92%
    02:00 +9°C° 0 mm 2 m/S 680 mmHg 92%
    03:00 +9°C° 0 mm 2 m/S 680 mmHg 92%
    04:00 +8°C° 0 mm 2 m/S 680 mmHg 92%
    05:00 +12°C° 0 mm 1 m/S 681 mmHg 86%
    06:00 +14°C° 0 mm 1 m/S 681 mmHg 81%
    07:00 +16°C° 0 mm 1 m/S 682 mmHg 75%
    08:00 +19°C° 0 mm 1 m/S 682 mmHg 65%
    09:00 +21°C° 0 mm 1 m/S 683 mmHg 55%
    10:00 +22°C° 0 mm 0 m/S 683 mmHg 45%
    11:00 +24°C° 0 mm 1 m/S 683 mmHg 44%
    12:00 +25°C° 0 mm 1 m/S 683 mmHg 43%
    13:00 +25°C° 0 mm 1 m/S 683 mmHg 42%
    14:00 +25°C° 0 mm 1 m/S 682 mmHg 45%
    15:00 +25°C° 0 mm 1 m/S 682 mmHg 49%
    16:00 +25°C° 0 mm 1 m/S 682 mmHg 52%
    17:00 +23°C° 0 mm 1 m/S 681 mmHg 63%
    18:00 +21°C° 0 mm 1 m/S 681 mmHg 73%
    19:00 +19°C° 0 mm 1 m/S 681 mmHg 84%
    20:00 +16°C° 0 mm 1 m/S 680 mmHg 86%
    21:00 +14°C° 0 mm 1 m/S 680 mmHg 89%
    22:00 +12°C° 0 mm 1 m/S 680 mmHg 91%
    23:00 +12°C° 0 mm 1 m/S 680 mmHg 91%

    übermorgen, 29 Mai, Montag

    Zeit Temperatur Niederschläge Wind Luftdruck Luftfeuchtigkeit
    00:00 +12°C° 0 mm 1 m/S 680 mmHg 90%
    01:00 +12°C° 0 mm 2 m/S 679 mmHg 89%
    02:00 +12°C° 0 mm 2 m/S 679 mmHg 89%
    03:00 +10°C° 0 mm 2 m/S 679 mmHg 88%
    04:00 +10°C° 0 mm 2 m/S 679 mmHg 88%
    05:00 +14°C° 0 mm 1 m/S 679 mmHg 83%
    06:00 +16°C° 0 mm 1 m/S 680 mmHg 78%
    07:00 +19°C° 0 mm 1 m/S 680 mmHg 72%
    08:00 +21°C° 0 mm 1 m/S 680 mmHg 64%
    09:00 +23°C° 0 mm 1 m/S 681 mmHg 56%
    10:00 +23°C° 0 mm 0 m/S 681 mmHg 48%
    11:00 +25°C° 0 mm 1 m/S 681 mmHg 48%
    12:00 +26°C° 0 mm 1 m/S 680 mmHg 48%
    13:00 +26°C° 0 mm 1 m/S 680 mmHg 47%
    14:00 +26°C° 0,1 mm 1 m/S 680 mmHg 51%
    15:00 +26°C° 0,1 mm 1 m/S 680 mmHg 55%
    16:00 +25°C° 0,1 mm 1 m/S 679 mmHg 59%
    17:00 +24°C° 0,4 mm 1 m/S 679 mmHg 68%
    18:00 +22°C° 0,4 mm 1 m/S 678 mmHg 78%
    19:00 +20°C° 0,4 mm 1 m/S 678 mmHg 88%
    20:00 +18°C° 0,1 mm 1 m/S 678 mmHg 90%
    21:00 +15°C° 0,1 mm 1 m/S 677 mmHg 92%
    22:00 +13°C° 0,1 mm 1 m/S 677 mmHg 94%
    23:00 +13°C° 0 mm 1 m/S 677 mmHg 93%

    30 Mai, Dienstag

    Zeit Temperatur Niederschläge Wind Luftdruck Luftfeuchtigkeit
    00:00 +12°C° 0 mm 1 m/S 677 mmHg 93%
    01:00 +12°C° 0 mm 1 m/S 677 mmHg 92%
    02:00 +12°C° 0 mm 1 m/S 677 mmHg 92%
    03:00 +12°C° 0 mm 1 m/S 677 mmHg 92%
    04:00 +12°C° 0 mm 1 m/S 677 mmHg 91%
    05:00 +14°C° 0 mm 1 m/S 677 mmHg 87%
    06:00 +16°C° 0 mm 1 m/S 678 mmHg 83%
    07:00 +20°C° 0 mm 1 m/S 679 mmHg 80%
    08:00 +21°C° 0 mm 1 m/S 679 mmHg 72%
    09:00 +23°C° 0 mm 1 m/S 679 mmHg 65%
    10:00 +24°C° 0 mm 1 m/S 680 mmHg 58%
    11:00 +25°C° 0,1 mm 1 m/S 680 mmHg 59%
    12:00 +25°C° 0,1 mm 1 m/S 679 mmHg 60%
    13:00 +25°C° 0,1 mm 1 m/S 679 mmHg 61%
    14:00 +25°C° 1,1 mm 1 m/S 679 mmHg 66%
    15:00 +24°C° 1,1 mm 1 m/S 679 mmHg 72%
    16:00 +23°C° 1,1 mm 1 m/S 679 mmHg 77%
    17:00 +22°C° 1,2 mm 1 m/S 679 mmHg 82%
    18:00 +21°C° 1,2 mm 1 m/S 679 mmHg 88%
    19:00 +19°C° 1,2 mm 1 m/S 679 mmHg 93%
    20:00 +19°C° 0,7 mm 1 m/S 679 mmHg 94%
    21:00 +18°C° 0,7 mm 1 m/S 679 mmHg 95%
    22:00 +16°C° 0,7 mm 1 m/S 679 mmHg 96%
    23:00 +16°C° 0,5 mm 1 m/S 679 mmHg 96%

    31 Mai, Mittwoch

    Zeit Temperatur Niederschläge Wind Luftdruck Luftfeuchtigkeit
    00:00 +16°C° 0,5 mm 1 m/S 679 mmHg 96%
    01:00 +15°C° 0,5 mm 1 m/S 679 mmHg 96%
    02:00 +15°C° 0,2 mm 1 m/S 679 mmHg 96%
    03:00 +14°C° 0,2 mm 1 m/S 679 mmHg 96%
    04:00 +14°C° 0,2 mm 1 m/S 679 mmHg 96%
    05:00 +15°C° 0,1 mm 1 m/S 679 mmHg 94%
    06:00 +16°C° 0,1 mm 1 m/S 680 mmHg 93%
    07:00 +18°C° 0,1 mm 1 m/S 680 mmHg 92%
    08:00 +19°C° 0,2 mm 1 m/S 680 mmHg 88%
    09:00 +20°C° 0,2 mm 1 m/S 681 mmHg 84%
    10:00 +21°C° 0,2 mm 1 m/S 681 mmHg 81%
    11:00 +22°C° 0,7 mm 1 m/S 681 mmHg 80%
    12:00 +22°C° 0,7 mm 1 m/S 681 mmHg 79%
    13:00 +23°C° 0,7 mm 1 m/S 680 mmHg 78%
    14:00 +22°C° 0,9 mm 1 m/S 680 mmHg 79%
    15:00 +22°C° 0,9 mm 1 m/S 680 mmHg 80%
    16:00 +21°C° 0,9 mm 2 m/S 680 mmHg 81%
    17:00 +21°C° 0,6 mm 1 m/S 680 mmHg 85%
    18:00 +20°C° 0,6 mm 1 m/S 680 mmHg 89%
    19:00 +19°C° 0,6 mm 1 m/S 680 mmHg 93%
    20:00 +18°C° 0,3 mm 1 m/S 680 mmHg 95%
    21:00 +14°C° 0,3 mm 0 m/S 679 mmHg 96%
    22:00 +12°C° 0,3 mm 0 m/S 679 mmHg 97%
    23:00 +12°C° 0,1 mm 0 m/S 679 mmHg 97%

    1 Juni, Donnerstag

    Zeit Temperatur Niederschläge Wind Luftdruck Luftfeuchtigkeit
    00:00 +12°C° 0,1 mm 0 m/S 679 mmHg 98%
    01:00 +12°C° 0,1 mm 0 m/S 679 mmHg 98%
    02:00 +11°C° 0 mm 0 m/S 679 mmHg 98%
    03:00 +11°C° 0 mm 0 m/S 678 mmHg 98%
    04:00 +10°C° 0 mm 0 m/S 678 mmHg 98%
    05:00 +12°C° 0 mm 0 m/S 679 mmHg 95%
    06:00 +14°C° 0 mm 0 m/S 679 mmHg 93%
    07:00 +16°C° 0 mm 0 m/S 680 mmHg 90%
    08:00 +19°C° 0,3 mm 1 m/S 680 mmHg 86%
    09:00 +20°C° 0,3 mm 1 m/S 680 mmHg 83%
    10:00 +21°C° 0,3 mm 1 m/S 680 mmHg 79%
    11:00 +21°C° 0,8 mm 2 m/S 680 mmHg 78%
    12:00 +21°C° 0,8 mm 2 m/S 680 mmHg 76%
    13:00 +23°C° 0,8 mm 2 m/S 680 mmHg 75%
    14:00 +23°C° 1 mm 2 m/S 680 mmHg 76%
    15:00 +21°C° 1 mm 2 m/S 680 mmHg 78%
    16:00 +21°C° 1 mm 2 m/S 679 mmHg 79%
    17:00 +20°C° 0,7 mm 2 m/S 679 mmHg 83%
    18:00 +19°C° 0,7 mm 2 m/S 679 mmHg 88%
    19:00 +19°C° 0,7 mm 1 m/S 679 mmHg 92%
    20:00 +16°C° 1 mm 1 m/S 679 mmHg 94%
    21:00 +15°C° 1 mm 1 m/S 678 mmHg 96%
    22:00 +13°C° 1 mm 1 m/S 678 mmHg 98%
    23:00 +13°C° 0,9 mm 1 m/S 678 mmHg 98%
    Mehr zeigen